Total_Precipitation_Accumulation
0.07 0.07 0.08 0.09 0.10 0.13 0.16 0.22 0.35 0.43 0.36 0.45 0.59 0.90 1.02 1.13 1.32 1.29 1.19 1.20 1.43 1.61 1.89 2.37 2.92 3.77 4.88 5.85 6.17 5.68 5.22 4.96 4.60 4.24 3.65 3.36 3.50 3.45 3.22 2.89 2.53 2.48 2.38 2.46
0.10 0.10 0.07 0.06 0.09 0.12 0.17 0.22 0.34 0.40 0.32 0.36 0.62 0.99 1.28 1.24 1.20 1.16 1.25 1.27 1.34 1.68 2.11 2.82 3.84 4.42 4.71 4.87 4.63 4.33 4.13 3.99 3.50 3.25 3.18 3.00 3.09 2.83 2.67 2.58 2.69 2.30 2.16 2.25
0.10 0.09 0.08 0.07 0.10 0.19 0.20 0.23 0.31 0.39 0.29 0.36 0.65 1.24 1.53 1.44 1.18 1.05 1.16 1.20 1.34 1.71 2.30 3.12 3.71 3.83 3.58 3.25 3.12 3.10 3.24 3.04 2.94 3.03 2.97 2.91 3.03 2.74 2.56 2.53 2.67 2.27 1.97 1.96
0.10 0.08 0.07 0.07 0.10 0.17 0.22 0.17 0.15 0.19 0.29 0.55 0.78 1.51 1.69 1.46 1.36 1.15 1.19 1.21 1.21 1.45 1.84 2.28 2.55 2.44 2.53 2.66 2.68 2.83 2.95 2.73 2.77 2.80 2.57 2.49 2.46 2.35 2.33 2.39 2.50 2.53 2.08 1.90
0.11 0.10 0.09 0.09 0.09 0.10 0.12 0.10 0.13 0.21 0.36 0.59 0.83 1.23 1.46 1.23 1.38 1.17 1.05 1.03 0.95 1.14 1.32 1.46 1.56 1.67 1.85 1.98 2.16 2.44 2.73 2.73 2.61 2.48 2.47 2.52 2.38 2.37 2.36 2.39 2.49 2.59 2.36 2.07
0.10 0.10 0.09 0.08 0.07 0.08 0.10 0.12 0.23 0.35 0.55 1.09 1.07 1.12 1.37 1.37 1.38 1.21 1.04 0.86 0.87 1.01 1.18 1.28 1.28 1.38 1.55 1.69 1.91 2.17 2.55 2.67 2.63 2.46 2.37 2.41 2.47 2.48 2.44 2.49 2.47 2.29 2.26 2.23
0.14 0.11 0.09 0.08 0.09 0.11 0.12 0.18 0.43 0.80 1.18 1.36 0.90 0.98 1.29 1.20 1.05 0.94 0.72 0.67 0.75 0.93 1.10 1.28 1.30 1.27 1.34 1.48 1.61 1.72 2.00 2.28 2.40 2.35 2.30 2.30 2.48 2.41 2.23 2.17 2.16 2.14 1.93 1.88
0.19 0.16 0.09 0.07 0.10 0.12 0.11 0.13 0.28 0.46 0.56 0.70 0.88 1.28 1.40 1.17 0.79 0.54 0.52 0.65 0.81 0.94 1.03 1.15 1.20 1.16 1.21 1.27 1.43 1.59 1.92 2.11 2.28 2.30 2.28 2.30 2.38 2.27 2.10 2.15 1.96 1.95 1.87 1.79
0.10 0.10 0.07 0.06 0.08 0.11 0.11 0.12 0.13 0.20 0.25 0.50 0.91 1.21 1.17 1.00 0.78 0.63 0.60 0.68 0.88 0.90 0.86 0.97 1.01 1.16 1.25 1.22 1.36 1.51 1.79 2.15 2.38 2.48 2.54 2.46 2.43 2.42 2.37 2.30 2.06 1.86 1.99 1.88
0.06 0.07 0.08 0.06 0.08 0.09 0.11 0.13 0.16 0.18 0.26 0.43 0.75 1.18 1.39 1.22 0.98 0.82 0.76 0.76 0.82 0.84 0.85 1.06 1.24 1.33 1.22 1.10 1.20 1.34 1.63 2.12 2.41 2.59 2.55 2.39 2.54 2.46 2.44 2.34 2.13 1.95 1.94 1.98
0.04 0.06 0.09 0.08 0.09 0.11 0.11 0.12 0.17 0.19 0.19 0.29 0.60 0.87 0.83 0.84 0.79 0.77 0.83 0.81 0.67 0.73 0.88 1.12 1.41 1.44 1.25 1.07 1.04 1.19 1.57 1.90 2.16 2.35 2.43 2.29 2.24 2.18 2.20 2.21 2.14 2.09 2.09 2.07
0.03 0.05 0.07 0.09 0.11 0.11 0.12 0.15 0.18 0.23 0.21 0.20 0.35 0.62 0.48 0.57 0.65 0.75 0.89 0.95 0.90 0.92 0.97 1.03 1.20 1.36 1.27 1.18 1.15 1.35 1.64 1.81 1.93 2.04 2.10 2.08 2.08 2.08 2.01 1.95 2.02 2.08 2.00 1.92
0.04 0.05 0.08 0.16 0.22 0.17 0.13 0.13 0.16 0.20 0.23 0.19 0.36 0.65 0.49 0.46 0.67 0.80 0.87 1.08 1.18 0.92 0.83 0.88 1.01 1.14 1.25 1.23 1.25 1.47 1.72 1.76 1.79 1.77 1.85 1.85 1.88 1.87 1.83 1.82 1.89 1.97 1.99 2.00
0.05 0.04 0.06 0.15 0.24 0.23 0.18 0.15 0.16 0.17 0.16 0.17 0.25 0.55 0.51 0.50 0.69 0.99 1.07 1.08 0.92 0.86 0.85 0.87 0.95 1.16 1.23 1.28 1.30 1.37 1.57 1.72 1.69 1.65 1.78 1.93 2.00 2.05 2.03 1.96 2.00 2.11 2.23 2.22
0.05 0.04 0.04 0.05 0.09 0.15 0.18 0.18 0.16 0.13 0.11 0.17 0.21 0.41 0.45 0.56 0.74 0.93 0.98 0.86 0.77 0.84 0.87 0.86 0.94 1.12 1.26 1.44 1.50 1.51 1.54 1.62 1.76 1.91 2.02 2.29 2.47 2.47 2.32 2.27 2.35 2.37 2.43 2.36
0.05 0.05 0.04 0.05 0.08 0.14 0.17 0.18 0.14 0.10 0.10 0.14 0.20 0.33 0.42 0.57 0.69 0.81 0.78 0.75 0.83 0.87 0.87 0.82 0.91 1.12 1.20 1.26 1.37 1.43 1.49 1.58 1.68 1.79 1.96 2.23 2.48 2.61 2.55 2.57 2.71 2.72 2.67 2.74
0.08 0.08 0.07 0.08 0.12 0.14 0.23 0.19 0.15 0.15 0.14 0.17 0.26 0.32 0.38 0.52 0.67 0.84 0.87 0.87 0.92 0.93 0.91 0.90 0.88 1.00 1.23 1.19 1.22 1.37 1.49 1.66 1.85 2.11 2.32 2.46 2.67 2.82 2.76 2.65 2.67 2.70 2.74 2.72
0.19 0.18 0.16 0.14 0.17 0.26 0.26 0.23 0.22 0.24 0.28 0.29 0.33 0.40 0.47 0.58 0.72 0.85 0.92 0.91 1.01 1.11 1.20 1.24 1.28 1.28 1.38 1.36 1.38 1.48 1.63 1.84 1.96 2.09 2.31 2.47 2.68 2.77 2.84 2.87 2.81 2.89 3.01 3.03
0.30 0.33 0.28 0.24 0.26 0.31 0.33 0.33 0.36 0.40 0.52 0.56 0.62 0.67 0.68 0.72 0.77 0.92 1.05 1.14 1.24 1.22 1.27 1.38 1.45 1.48 1.50 1.58 1.73 1.91 1.99 2.17 2.35 2.47 2.64 2.72 2.75 2.81 2.85 2.89 3.03 3.15 3.27 3.27
0.35 0.40 0.41 0.35 0.44 0.51 0.52 0.51 0.47 0.56 0.91 0.80 0.88 0.98 0.98 1.05 1.30 1.36 1.35 1.35 1.39 1.37 1.40 1.48 1.51 1.57 1.78 1.83 1.91 2.09 2.31 2.49 2.68 2.84 2.95 3.02 3.06 3.06 3.02 3.02 3.14 3.23 3.31 3.33
0.44 0.51 0.51 0.48 0.51 0.55 0.56 0.56 0.57 1.00 1.37 1.28 1.29 1.32 1.25 1.40 1.50 1.38 1.30 1.43 1.49 1.55 1.61 1.64 1.68 1.78 1.92 1.99 2.06 2.24 2.53 2.77 2.98 3.02 3.07 3.13 3.22 3.39 3.52 3.55 3.36 3.23 3.24 3.34
0.74 0.77 0.76 0.74 0.90 0.97 0.68 0.76 1.13 1.40 1.34 1.57 1.45 1.30 1.32 1.34 1.29 1.24 1.26 1.43 1.60 1.73 1.79 1.82 1.85 1.90 1.95 2.08 2.22 2.32 2.57 2.72 2.92 2.96 3.08 3.16 3.21 3.15 3.18 3.47 3.56 3.53 3.41 3.28
1.01 1.05 1.10 1.08 1.21 1.09 0.90 0.96 1.24 1.29 1.30 1.44 1.44 1.25 1.22 1.23 1.18 1.20 1.27 1.39 1.56 1.70 1.75 1.75 1.82 1.95 1.94 1.97 2.17 2.45 2.53 2.61 2.66 2.78 2.92 3.13 3.23 3.30 3.28 3.28 3.39 3.41 3.32 3.11
1.23 1.05 1.21 1.42 1.45 1.30 1.12 1.02 1.10 1.17 1.24 1.29 1.42 1.43 1.31 1.27 1.22 1.28 1.32 1.41 1.63 1.72 1.72 1.77 1.73 1.77 1.88 1.99 2.18 2.29 2.33 2.48 2.74 2.86 2.90 2.97 3.06 3.10 3.18 3.28 3.24 3.19 3.17 3.09
1.32 1.30 1.53 1.94 1.99 1.83 1.66 1.42 1.30 1.27 1.29 1.39 1.50 1.56 1.61 1.56 1.49 1.51 1.46 1.49 1.62 1.67 1.63 1.73 1.82 1.85 1.92 1.99 2.16 2.33 2.37 2.43 2.57 2.67 2.65 2.73 2.88 2.97 3.04 3.18 3.24 3.10 2.98 3.00
1.34 1.57 1.97 2.33 2.15 2.16 2.01 1.66 1.49 1.50 1.59 1.58 1.60 1.64 1.61 1.61 1.59 1.61 1.64 1.57 1.50 1.48 1.61 1.76 1.83 1.92 1.97 2.02 2.10 2.16 2.25 2.38 2.51 2.59 2.62 2.62 2.66 2.80 2.89 2.85 2.91 2.95 2.71 2.64